[[{"header":{"parameterUnit":"m.s-1","parameterCategory":1,"la1":30.2991,"la2":30.254,"lo1":-89.0895,"lo2":-89.0444,"dy":0.0017,"dx":0.0017,"nx":28,"ny":28,"refTime":"2025-12-14T09:00:00:Z","depth":0,"parameterNumber":2,"parameterNumberName":"U-component_of_WINDS"},"data":[0,0,0,0,0,0,0,0,0,0,0,0,0,0,0,0,0,0,0,0,0,0,0,0,0,0,0,0,0,0,0,0,0,0,0,0,0,0,0,0,0,0,0,0,0,0,0,0,0,0,0,0,0,0,0,0,0,0,-3.4003,-3.4005,0,-3.4115,-3.4116,-3.4117,-3.4035,-3.4031,-3.4028,-3.4024,-3.4141,-3.4147,-3.4153,0,0,0,0,0,0,0,0,0,0,0,0,0,-3.372,-3.3726,-3.4003,-3.4005,-3.4006,-3.4115,-3.4116,-3.4118,-3.4036,-3.4031,-3.4027,-3.4023,-3.4139,-3.4146,-3.4154,0,0,0,0,0,0,0,0,0,0,0,0,0,-3.3839,-3.3727,-3.4003,-3.3978,-3.3977,-3.4114,-3.4116,-3.4118,-3.4036,-3.4031,-3.4026,-3.4021,-3.4136,-3.4145,-3.4155,-3.4324,0,0,-3.4185,-3.4189,0,0,0,0,0,0,0,0,-3.3832,-3.3849,-3.398,-3.398,-3.3979,-3.4055,-3.4059,-3.4187,-3.4038,-3.4014,-3.4024,-3.4018,-3.4117,-3.4128,-3.4161,-3.4329,-3.4334,-3.4186,-3.4191,-3.4196,-3.4198,0,0,0,0,0,0,0,-3.3824,-3.3844,-3.4047,-3.3982,-3.3982,-3.3962,-3.3972,-3.4083,-3.4095,-3.4016,-3.401,-3.4024,-3.4115,-3.4152,-3.4163,-3.4336,-3.4185,-3.4194,-3.42,-3.4204,-3.4647,-3.4653,0,0,0,0,0,0,-3.3818,-3.3837,-3.4044,-3.4051,-3.3891,-3.3971,-3.3983,-3.4036,-3.4093,-3.4097,-3.4029,-3.402,-3.4138,-3.4152,-3.4167,-3.4368,-3.4196,-3.4205,-3.421,-3.4641,-3.4649,-3.4655,0,0,0,0,0,0,-3.3812,-3.3837,-3.4039,-3.3943,-3.3967,-3.3982,-3.4042,-3.4041,-3.4077,-3.4103,-3.4105,-3.4063,-3.4134,-3.4153,-3.4285,-3.4371,-3.4209,-3.4218,-3.4634,-3.4644,-3.4652,-3.4772,0,0,0,0,0,0,-3.3804,-3.3835,-3.39,-3.3945,-3.3972,-3.4156,-3.4047,-3.4048,-3.4094,-3.4084,-3.4136,-3.4139,-3.4131,-3.4271,-3.4295,-3.4381,-3.4225,-3.4627,-3.4638,-3.4649,-3.476,-3.4784,-3.4804,0,0,0,0,0,-3.3794,-3.393,-3.3903,-3.3929,-3.4053,-3.4161,-3.4177,-3.4164,-3.4101,-3.4166,-3.4182,-3.4138,-3.4357,-3.4285,-3.4311,-3.4402,-3.4621,-3.4635,-3.4648,-3.475,-3.4779,-3.4803,0,0,0,0,0,0,-3.3896,-3.3935,-3.3906,-3.406,-3.4108,-3.4147,-3.4229,-3.4195,-3.4262,-3.425,-3.4231,-3.4243,-3.4382,-3.4405,-3.4324,-3.4567,-3.4479,-3.4498,-3.4548,-3.4575,-3.4597,-3.4589,-3.4234,0,0,0,0,0,-3.3935,-3.402,-3.405,-3.4182,-3.4208,-3.4214,-3.4261,-3.4246,-3.4295,-3.4316,-3.4341,-3.4391,-3.4471,-3.4524,-3.4599,-3.4762,-3.4772,-3.4837,-3.4859,-3.4877,-3.4894,-3.4982,-3.5011,-3.4699,-3.4699,-3.4699,0,0,-3.402,-3.4051,-3.4106,-3.4204,-3.4239,-3.4327,-3.4232,-3.4329,-3.4394,-3.433,-3.4457,-3.4477,-3.4531,-3.468,-3.4746,-3.4703,-3.4982,-3.4894,-3.4908,-3.4916,-3.4999,-3.5028,-3.5054,-3.4708,-3.4707,-3.4705,0,0,-3.4218,-3.425,-3.4364,-3.4401,-3.4455,-3.4458,-3.4485,-3.4529,-3.454,-3.4666,-3.462,-3.4697,-3.4835,-3.4875,-3.4914,-3.5125,-3.5087,-3.515,-3.5264,-3.535,-3.5375,-3.5396,-3.5472,-3.55,-3.5167,-3.5167,-3.5167,0,-3.4316,-3.4446,-3.4427,-3.4528,-3.4572,-3.4516,-3.4632,-3.4668,-3.4745,-3.4777,-3.4727,-3.4898,-3.493,-3.5087,-3.5139,-3.5171,-3.5202,-3.5145,-3.5372,-3.5394,-3.5414,-3.5486,-3.5515,-3.5175,-3.5174,-3.5173,-3.5172,0,-3.4564,-3.4655,-3.474,-3.4814,-3.4868,-3.4975,-3.4973,-3.503,-3.501,-3.5018,-3.5147,-3.5183,-3.5264,-3.53,-3.5283,-3.5455,-3.5426,-3.5375,-3.5286,-3.5452,-3.5519,-3.5547,-3.5185,-3.5182,-3.518,-3.5178,0,0,-3.4832,-3.4892,-3.4924,-3.4956,-3.5011,-3.5081,-3.5185,-3.5264,-3.5313,-3.5366,-3.5454,-3.5571,-3.5523,-3.5567,-3.5553,-3.5628,-3.5793,-3.5567,-3.5568,-3.5609,-3.5985,-3.6025,-3.6057,-3.5767,-3.5772,-3.5777,-3.5981,0,-3.5033,-3.5215,-3.52,-3.5372,-3.5456,-3.5403,-3.5494,-3.5538,-3.5548,-3.562,-3.5631,-3.5715,-3.5645,-3.5671,-3.5743,-3.5758,-3.5869,-3.5743,-3.5849,-3.5853,-3.5839,-3.6092,-3.6135,-3.6326,-3.6007,-3.6012,-3.6015,0,-3.5293,-3.5355,-3.5535,-3.5576,-3.561,-3.5693,-3.5762,-3.5832,-3.588,-3.5882,-3.593,-3.5903,-3.6008,-3.5915,-3.606,-3.5975,-3.6017,-3.6031,-3.6038,-3.6049,-3.5946,-3.6111,-3.6387,-3.6416,-3.6056,-3.6053,-3.605,0,-3.5471,-3.5599,-3.5723,-3.5753,-3.5803,-3.5862,-3.5886,-3.5928,-3.5976,-3.6037,-3.6067,-3.614,-3.6181,-3.6238,-3.6231,-3.6164,-3.6378,-3.6285,-3.6384,-3.6384,-3.6433,-3.643,-3.6721,-3.6458,-3.6458,-3.6457,-3.6456,0,-3.5699,-3.5811,-3.5804,-3.5881,-3.6005,-3.5986,-3.611,-3.6127,-3.6165,-3.6244,-3.6202,-3.6277,-3.6263,-3.6338,-3.6333,-3.6454,-3.6472,-3.6477,-3.6475,-3.6482,-3.6481,-3.651,-3.6497,-3.6465,-3.6463,-3.6462,-3.646,0,-3.592,-3.5919,-3.6051,-3.6087,-3.6099,-3.6189,-3.622,-3.6293,-3.6298,-3.6398,-3.6421,-3.643,-3.6516,-3.6514,-3.6612,-3.6609,-3.6757,-3.6739,-3.6742,-3.6738,-3.6837,-3.6828,-3.7158,-3.72,-3.6909,-3.6912,-3.6914,0,-3.6066,-3.6151,-3.6196,-3.6245,-3.6272,-3.6353,-3.6401,-3.6385,-3.6437,-3.6497,-3.6562,-3.6644,-3.6709,-3.6848,-3.6864,-3.6938,-3.6922,-3.7032,-3.6933,-3.6937,-3.6925,-3.6921,-3.6929,-3.7052,-3.7056,-3.7058,-3.7061,0,-3.6325,-3.632,-3.639,-3.6461,-3.6519,-3.6574,-3.6624,-3.6667,-3.6657,-3.6717,-3.6804,-3.6854,-3.6953,-3.7035,-3.7106,-3.713,-3.7095,-3.7091,-3.7118,-3.7127,-3.7125,-3.7128,-3.6796,-3.7084,-3.7082,-3.708,-3.7079,-3.7078,-3.6514,-3.6587,-3.6629,-3.6709,-3.6745,-3.6792,-3.6862,-3.6875,-3.6947,-3.7026,-3.7012,-3.711,-3.7154,-3.7245,-3.7276,-3.7352,-3.7313,-3.7352,-3.7362,-3.7372,-3.7384,-3.7112,-3.7365,-3.7364,-3.7363,-3.7363,-3.7362,0,-3.6772,-3.6796,-3.6869,-3.694,-3.7003,-3.6961,-3.7014,-3.707,-3.7156,-3.7199,-3.7263,-3.7363,-3.7441,-3.7462,-3.7538,-3.7595,-3.758,-3.7615,-3.7612,-3.7618,-3.7414,-3.7383,-3.7626,-3.7626,-3.7626,-3.7626,-3.7626,-3.7626,-3.6914,-3.7035,-3.7035,-3.7173,-3.7196,-3.7291,-3.7325,-3.7368,-3.7403,-3.7515,-3.758,-3.7593,-3.7628,-3.7705,-3.7775,-3.7779,-3.781,-3.7852,-3.785,-3.7659,-3.7633,-3.7607,-3.7579,-3.7858,-3.7859,-3.8047,-3.8049,-3.805]},{"header":{"parameterUnit":"m.s-1","parameterCategory":1,"la1":30.2991,"la2":30.254,"lo1":-89.0895,"lo2":-89.0444,"dy":0.0017,"dx":0.0017,"nx":28,"ny":28,"refTime":"2025-12-14T09:00:00:Z","depth":0,"parameterNumber":3,"parameterNumberName":"V-component_of_WINDS"},"data":[0,0,0,0,0,0,0,0,0,0,0,0,0,0,0,0,0,0,0,0,0,0,0,0,0,0,0,0,0,0,0,0,0,0,0,0,0,0,0,0,0,0,0,0,0,0,0,0,0,0,0,0,0,0,0,0,0,0,-5.6778,-5.6779,0,-5.6844,-5.6845,-5.6845,-5.6787,-5.6785,-5.6782,-5.678,-5.6844,-5.6848,-5.6852,0,0,0,0,0,0,0,0,0,0,0,0,0,-5.6598,-5.6602,-5.6778,-5.6779,-5.678,-5.6844,-5.6845,-5.6846,-5.6788,-5.6785,-5.6782,-5.6779,-5.6843,-5.6848,-5.6852,0,0,0,0,0,0,0,0,0,0,0,0,0,-5.6671,-5.6603,-5.6778,-5.6759,-5.6758,-5.6844,-5.6845,-5.6846,-5.6788,-5.6785,-5.6781,-5.6778,-5.6841,-5.6847,-5.6853,-5.696,0,0,-5.6871,-5.6873,0,0,0,0,0,0,0,0,-5.6667,-5.6678,-5.6761,-5.676,-5.6759,-5.6804,-5.6804,-5.6884,-5.6789,-5.6777,-5.678,-5.6776,-5.6833,-5.684,-5.686,-5.6963,-5.6966,-5.6871,-5.6875,-5.6877,-5.6879,0,0,0,0,0,0,0,-5.6662,-5.6675,-5.6804,-5.6762,-5.6761,-5.6745,-5.6752,-5.6819,-5.6824,-5.6777,-5.6773,-5.6782,-5.6832,-5.6854,-5.6861,-5.6967,-5.6871,-5.6876,-5.688,-5.6882,-5.7158,-5.7161,0,0,0,0,0,0,-5.666,-5.6671,-5.6802,-5.6806,-5.6704,-5.6751,-5.6759,-5.6793,-5.6823,-5.6824,-5.6785,-5.6779,-5.6846,-5.6854,-5.6863,-5.6988,-5.6877,-5.6883,-5.6886,-5.7154,-5.7159,-5.7163,0,0,0,0,0,0,-5.6656,-5.6672,-5.6799,-5.6737,-5.6752,-5.6758,-5.6797,-5.6796,-5.6818,-5.6829,-5.6829,-5.6807,-5.6843,-5.6855,-5.6936,-5.6989,-5.6885,-5.6891,-5.715,-5.7155,-5.7161,-5.7241,0,0,0,0,0,0,-5.6651,-5.6671,-5.6713,-5.6739,-5.6756,-5.6873,-5.6801,-5.68,-5.6829,-5.6822,-5.685,-5.6851,-5.6841,-5.6927,-5.6942,-5.6996,-5.6895,-5.7145,-5.7152,-5.7159,-5.7233,-5.7248,-5.7261,0,0,0,0,0,-5.6645,-5.6733,-5.6716,-5.6732,-5.6809,-5.6877,-5.6886,-5.6875,-5.6833,-5.6875,-5.6881,-5.685,-5.6982,-5.6936,-5.6952,-5.7008,-5.7141,-5.715,-5.7158,-5.7227,-5.7245,-5.7261,0,0,0,0,0,0,-5.6714,-5.6737,-5.6717,-5.6817,-5.6845,-5.6867,-5.6919,-5.6895,-5.6935,-5.6927,-5.691,-5.6916,-5.7002,-5.7013,-5.6962,-5.7112,-5.7054,-5.7067,-5.7101,-5.7119,-5.7133,-5.7127,-5.69,0,0,0,0,0,-5.6741,-5.6795,-5.6811,-5.6897,-5.6913,-5.6913,-5.6942,-5.6931,-5.6959,-5.697,-5.6983,-5.701,-5.7057,-5.7089,-5.7133,-5.7235,-5.7238,-5.7281,-5.7295,-5.7307,-5.7317,-5.7368,-5.7386,-5.7191,-5.7191,-5.7191,0,0,-5.6797,-5.6816,-5.6851,-5.6912,-5.6932,-5.6986,-5.6924,-5.6985,-5.7024,-5.6979,-5.7056,-5.7067,-5.7096,-5.7187,-5.7228,-5.7199,-5.7372,-5.7318,-5.7327,-5.7331,-5.7379,-5.7397,-5.7414,-5.7197,-5.7196,-5.7195,0,0,-5.6926,-5.6947,-5.702,-5.7041,-5.7073,-5.7072,-5.709,-5.7114,-5.7119,-5.7197,-5.7163,-5.7209,-5.7292,-5.7313,-5.7335,-5.7469,-5.744,-5.7484,-5.7557,-5.7607,-5.7622,-5.7636,-5.7681,-5.7698,-5.7494,-5.7494,-5.7494,0,-5.6991,-5.7073,-5.706,-5.7122,-5.7149,-5.7111,-5.7183,-5.7204,-5.7249,-5.7267,-5.7234,-5.7335,-5.7352,-5.7446,-5.7479,-5.7499,-5.7516,-5.748,-5.7621,-5.7635,-5.7647,-5.769,-5.7708,-5.7499,-5.7499,-5.7498,-5.7498,0,-5.715,-5.7207,-5.7261,-5.7305,-5.7338,-5.7405,-5.74,-5.7434,-5.7419,-5.7422,-5.7499,-5.7518,-5.7564,-5.7586,-5.7572,-5.7677,-5.7658,-5.7624,-5.7566,-5.7671,-5.7711,-5.7727,-5.7506,-5.7504,-5.7503,-5.7502,0,0,-5.7325,-5.7359,-5.7379,-5.7397,-5.7428,-5.7471,-5.7535,-5.7581,-5.7609,-5.7641,-5.7692,-5.7762,-5.7729,-5.7754,-5.7742,-5.7787,-5.7888,-5.7746,-5.7747,-5.777,-5.8001,-5.8025,-5.8045,-5.787,-5.7873,-5.7875,-5.7998,0,-5.7453,-5.7566,-5.7554,-5.766,-5.7711,-5.7674,-5.773,-5.7754,-5.7757,-5.7799,-5.7802,-5.785,-5.7806,-5.782,-5.7862,-5.7867,-5.7934,-5.7858,-5.7915,-5.7917,-5.7907,-5.8066,-5.8092,-5.8207,-5.8014,-5.8017,-5.8019,0,-5.7619,-5.7655,-5.7766,-5.7787,-5.7808,-5.7858,-5.7897,-5.7938,-5.7964,-5.7962,-5.7989,-5.7969,-5.803,-5.7972,-5.8055,-5.8003,-5.8026,-5.8031,-5.8035,-5.8039,-5.7973,-5.8072,-5.8244,-5.826,-5.8043,-5.8041,-5.804,0,-5.7732,-5.7809,-5.7885,-5.7902,-5.7928,-5.7964,-5.7976,-5.7998,-5.8025,-5.8059,-5.8076,-5.8116,-5.8138,-5.8169,-5.8159,-5.8118,-5.8243,-5.8185,-5.8242,-5.8242,-5.8269,-5.8267,-5.8445,-5.8287,-5.8287,-5.8287,-5.8286,0,-5.7875,-5.7944,-5.7935,-5.7982,-5.8057,-5.8042,-5.8116,-5.8124,-5.8143,-5.8188,-5.816,-5.8203,-5.8188,-5.8229,-5.8222,-5.829,-5.8301,-5.83,-5.8297,-5.8302,-5.8302,-5.8315,-5.8306,-5.8291,-5.829,-5.8289,-5.8289,0,-5.8015,-5.8012,-5.8091,-5.811,-5.8116,-5.817,-5.8184,-5.8226,-5.8227,-5.8285,-5.8297,-5.8297,-5.8345,-5.8338,-5.8391,-5.8385,-5.847,-5.8458,-5.8462,-5.8458,-5.8515,-5.8509,-5.8706,-5.873,-5.8559,-5.8561,-5.8562,0,-5.8105,-5.8157,-5.8181,-5.8209,-5.8224,-5.8271,-5.8298,-5.8285,-5.8314,-5.8345,-5.8383,-5.8427,-5.8462,-5.8539,-5.8543,-5.8582,-5.8569,-5.8636,-5.8575,-5.8577,-5.8567,-5.8564,-5.8567,-5.8647,-5.8649,-5.8651,-5.8652,0,-5.8266,-5.8262,-5.8302,-5.8342,-5.8375,-5.8406,-5.8433,-5.8458,-5.8446,-5.848,-5.8528,-5.8555,-5.8608,-5.8652,-5.8688,-5.8699,-5.8673,-5.8671,-5.8686,-5.8691,-5.869,-5.8688,-5.8492,-5.8667,-5.8665,-5.8664,-5.8663,-5.8663,-5.8382,-5.8425,-5.8448,-5.8493,-5.8512,-5.8538,-5.8577,-5.8582,-5.8622,-5.8665,-5.8654,-5.8708,-5.8728,-5.8775,-5.8789,-5.883,-5.8805,-5.8827,-5.8833,-5.8838,-5.8843,-5.8685,-5.8837,-5.8836,-5.8836,-5.8835,-5.8835,0,-5.8539,-5.8551,-5.8593,-5.8632,-5.8667,-5.864,-5.8668,-5.8699,-5.8746,-5.8769,-5.8803,-5.8856,-5.8898,-5.8905,-5.8944,-5.8974,-5.8963,-5.8985,-5.8981,-5.8984,-5.8865,-5.8847,-5.8993,-5.8993,-5.8993,-5.8993,-5.8993,-5.8993,-5.8625,-5.8695,-5.8693,-5.8771,-5.8783,-5.8835,-5.8853,-5.8875,-5.8893,-5.8954,-5.8988,-5.8992,-5.9008,-5.9047,-5.9083,-5.9084,-5.9098,-5.9124,-5.912,-5.9008,-5.8992,-5.8977,-5.896,-5.9128,-5.9128,-5.9235,-5.9236,-5.9237]}]]